Petersburg, AK

3:09 AM AKDT on July 29, 2015 (GMT -0800)
Johnson Petersburg | | Change Station
CLOSE
Current Station
Airport
Location: Petersburg,
Elevation: 0 ft
Nearby Weather Stations

Elev 0 ft 56.82 °N, 132.97 °W | Updated 13 minutes ago

Overcast
Overcast
54 °F
Feels Like 54 °F
N
0
Wind Variable Wind from North

Today
High -- | Low -- °F
--% Chance of Precip.
Yesterday
High -- | Low -- °F
Precip. -- in
4:46 AM 9:11 PM
Waxing Gibbous, 95% visible
Pressure 30.13 in
Visibility 4.0 miles
Clouds Mostly Cloudy 800 ft
Overcast 2900 ft
Dew Point 48 °F
Humidity 82%
Rainfall 0.03 in
Snow Depth Not available.
UV 0 out of 12
Pollen Not available.
Air Quality Not available.
Flu Activity Not available.
METAR PAPG 291056Z AUTO 00000KT 4SM BKN008 OVC029 12/09 A3013 RMK AO1

More Conditions Fewer Conditions

Pressure 30.13 in
Visibility 4.0 miles
Clouds Mostly Cloudy 800 ft
Overcast 2900 ft
Dew Point 48 °F
Humidity 82%
Rainfall 0.03 in
Snow Depth Not available.
UV 0 out of 12
Pollen Not available.
Air Quality Not available.
Flu Activity Not available.
METAR PAPG 291056Z AUTO 00000KT 4SM BKN008 OVC029 12/09 A3013 RMK AO1

More Conditions Fewer Conditions

10-Day Weather Forecast

×

Almanac

Astronomy

Jul. 29, 2015 Rise Set
Actual Time
Civil Twilight
Nautical Twilight
Astronomical Twilight
Moon
Length of Visible Light
Length of Day
Tomorrow will be .
, % of the Moon is Illuminated

Today's Extremes

State Highs State Lows

Community

WunderPhotos

Upload Photos

1,842,075 photos uploaded!

WunderBlogs® & News

Nearby

Air Quality

  Air Quality AQ Index Pollutant
Not available.

Snow Depth

Station Depth Elevation

Earthquake Activity

City Distance Mag. Time & Date
Minimum magnitude displayed is 2.5.

Coastal Water Temperatures

Place Temperature

Stations

Nearby Weather Stations

Station Location Temp. Windchill Dew Point Humidity Wind Precip. Elev Updated Type